Погода в Арке

Погода в Арке : погода сейчас, прогноз погоды и архив. Всё, что Вы хотите узнать о погоде в Арке!

Хотите узнать прогноз погоды в Арке? Тогда Вам сюда: Погода в Арке

Поиск расширенной информации на нашем сайте:

Другие новости

Новости СМИ2

Главная страница сайта

Новости сайта

03.07.2017

Напоминаем, что на нашем специализированном сайте Метеоцентр.Азия вы можете получить высокодетализированные автоматические прогнозы погоды по пунктам России, СНГ и мира в авиационном формате (включающие направление и скорость ветра, видимость, явления погоды, количество и форму облачности, нижнюю и верхнюю границу облачности).

Рекомендуем: Раздолье электронная отчетность электронная отчетность.

Погода в Арке - сегодня

Время (UTC), дата Ветер
(°,м/с) 
Видим.   Явления Облачность Т
(°С)
Тd
(°С)
f(%) Тe
(°С)
Pmin
(гПа)
dP
(гПа)
Po
(мм)
O2
(г/м3)
Тmin Tmax R s Состояние
почвы
21 19.07.17 170 (Ю) 10 км  слаб. ливневой дождь  10/10 300 м кучево-дожд. 
[Cb cap]
+10.3 +9.5 95 +11  1003  0.7  735  283  +10.3      влажная 
00 20.07.17 310 (СЗ) 20000 м  в посл. час ливневой дождь  10/10 300 м кучево-дожд. 
[Cb cap]
+11 +10.1 94 +14  1003.4  0.4  735  283           
03 20.07.17 010 (С) 20000 м  в посл. час ливневой дождь  10/10 300 м кучево-дожд. 
[Cb cap]
+11.9 +10.4 91 +14  1003.4  0.1  735  282           
06 20.07.17 360 (С) 10 км  слаб. ливневой дождь  10/10 300 м кучево-дожд. 
[Cb cap]
+12.4   1003.7  0.3  735             
09 20.07.17 070 (В) 20000 м  в посл. час морось{ливн. осадки}  10/10 300 м 
[St]
+12.1 +10.9 92 +16  1004.8  1.1  736  282    +12.5     
12 20.07.17 тихо ()   2000 м  ливневой дождь{морось}  10/10 300 м кучево-дожд. 
[Cb cap]
+10.6 +10.2 97 +12  1005.2  0.3  736  284           
15 20.07.17 тихо ()   4000 м  слаб. ливневой дождь  10/10 300 м кучево-дожд. 
[Cb cap]
+10.5 +10.1 97 +12  1005.4  0.2  736  284           
18 20.07.17 300 (СЗ) 4000 м  слаб. ливневой дождь  10/10 300 м кучево-дожд. 
[Cb cap]
+10.5 +10.1 97 +14  1004.8  -0.6  736  284           
21 20.07.17 250 (З) 4000 м  слаб. морось{ливн. осадки}  10/10 300 м 
+11.4 +10.7 95 +15  1004.8  736  283  +10.4      влажная 
00 21.07.17 350 (С) 20000 м  {ливн. осадки, морось}  10/10 300 м кучево-дожд. 
[Cb cap]
+13.6 +11.4 87 +18  1005.1  0.5  736  280           
03 21.07.17 170 (Ю) 20000 м    10/10 300 м кучево-дожд. 
[Cb cap]
+13.6 +11.5 87 +19  1005.2  0.1  736  280           
06 21.07.17 тихо ()   20000 м    10/10 300 м кучево-дожд. 
[Cb cap]
+13.9 +11.6 86 +18  1005.4  0.2  737  280           
09 21.07.17 тихо ()   20000 м    10/10 600 м 
[Sc]
+14.1 +11.7 85 +18  1005.7  0.3  737  280    +14.2       
12 21.07.17 тихо ()   20000 м    9/3 1000 м средняя, верхняя 
[Sc|Ac trans|Ci fib]
+12 +11.4 96 +15  1006.1  0.3  737  282           
15 21.07.17 тихо ()   0500 м  туман  ?/?  
+9 +8.6 97 +9  1005.8    737  286           
18 21.07.17 тихо ()   0500 м  туман  ?/?  
+8.9 +8.6 98 +9  1005.5  -0.3  736  286           
21 21.07.17 тихо ()   н/о    н/о 
+13 +12 94 +17  1005.9  0.1  737  281  +13        сухая 
00 22.07.17 280 (З) 20000 м  {туман}  3/3 1000 м 
[Cu med, cong]
+17.7 +11.3 66 +22  1002.8  -1.6  735  276           
03 22.07.17 050 (СВ) 20000 м    8/8 1000 м кучево-дожд. 
[Cb cap]
+20.8 +8.9 46 +21  1001.3  -1.3  734  273           
06 22.07.17 130 (ЮВ) 20000 м    6/4 1000 м кучево-дожд., верхняя 
[Cb cap|Ci fib]
+22.6 +10.7 47 +25  999.5  -1.6  733  271           
09 22.07.17 140 (ЮВ) 20000 м    9/3 1000 м верхняя 
[Cu hum|Ci fib]
+20.2 +13.8 67 +27  999.5  -0.1  733  272    +23.9       
12 22.07.17 160 (Ю) 20000 м    9/3 1000 м верхняя 
[Sc diur, vesp|Ci fib]
+14.7 +12.1 84 +20  1000.5  0.5  733  278           
15 22.07.17 130 (ЮВ) н/о    н/о 
+21 +11.4 54 +25  1000.3  -1.3  733  272           
18 22.07.17 160 (Ю) 0200 м  туман  ?/?  
+10.7 +10.1 96 +13  1000.7  -0.3  733  282           
21 22.07.17 тихо ()   20000 м  туман местами  8/0 средняя, верхняя 
[Ac trans|Ci fib]
+10.8 +10.4 97 +13  1001.3  0.7  733  282  +10.3        влажная 
Время (UTC), дата Ветер
(°,м/с) 
Видим.   Явления Облачность Т
(°С)
Тd
(°С)
f(%) Тe
(°С)
Pmin
(гПа)
dP
(гПа)
Po
(мм)
O2
(г/м3)
Тmin Tmax R s Состояние
почвы

Для получения пояснительной информации подведите курсор к названию столбца.

ПОГОДА в Арке - архив

Всё, что Вы хотите узнать о погоде в Арке - удобно и подробно!

Выберите нужную дату (начиная с 1 января 2015* года) и нажмите кнопку "Найти".
Будут отображены архивные сводки погоды по пункту Арка, начиная с указанной даты.


Отображать данные в формате CSV (для использования в таблицах Excel)


Внимание! Наш архив погоды предназначен исключительно для личного некоммерческого использования в познавательных целях. Если Вам необходимы официальные справки о состоянии погоды (для производственных, юридических, коммерческих и т.п. целей), обращайтесь в органы Росгидромета.

*Примечание: данная дата относится к архиву по метеостанциям СССР (Россия, СНГ, Балтия).
Архив по метеостанциям Зарубежной Европы и Азии (кроме Китая) хранится 10 дней, по другим регионам земного шара (Китай, Африка, Америка, Австралия, Океания) - 1 день.

Арка - район местоположения метеостанции


Название, широта, долгота, высота метеостанции:
Арка 60.1°ш. 142.3°д. 198 м над ур. моря [Российская Федерация]

Дополнительная информация

В oтличие oт бoльшинства пoгoдных сайтoв мы публикуем пoдрoбную метеoинфoрмацию в детальнoм прoфессиoнальнoм фoрмате.

Характеристики температуры и влажнoсти вoздуха измеряются на высoте 2 м в тени вдали oт зданий и деревьев.
Скoрoсть ветра измеряется на высoте 10 м (на урoвне рoста челoвека скoрoсть ветра ниже в 1.5-2 раза). Если метеoстанция нахoдится в гoрoде или в лесу, тo скoрoсть ветра занижена на 2-4 м/с пo сравнению с oткрытым местoм. Скoрoсть ветра над акватoриями крупных рек и oзёр, а также на вершинах хoлмoв на 2-5 м/с выше, чем в oбычных услoвиях.
Атмoсфернoе давление в разных тoчках местнoсти мoжет значительнo oтличаться oт давления на метеoстанции, в зависимoсти oт услoвий рельефа (при пoдъёме на 10 м давление пoнижается примернo на 1 мм рт.ст.).